Year,Month,Day,Hour,Minute,Value (Times are PST for temperature in C)
2018,09,18,00,00,7.40
2018,09,18,00,01,7.40
2018,09,18,00,02,7.40
2018,09,18,00,03,7.40
2018,09,18,00,04,7.40
2018,09,18,00,05,7.40
2018,09,18,00,06,7.40
2018,09,18,00,07,7.40
2018,09,18,00,08,7.40
2018,09,18,00,09,7.40
2018,09,18,00,10,7.30
2018,09,18,00,11,7.30
2018,09,18,00,12,7.30
2018,09,18,00,13,7.30
2018,09,18,00,14,7.30
2018,09,18,00,15,7.30
2018,09,18,00,16,7.30
2018,09,18,00,17,7.30
2018,09,18,00,18,7.30
2018,09,18,00,19,7.30
2018,09,18,00,20,7.30
2018,09,18,00,21,7.30
2018,09,18,00,22,7.30
2018,09,18,00,23,7.30
2018,09,18,00,24,7.30
2018,09,18,00,25,7.30
2018,09,18,00,26,7.20
2018,09,18,00,27,7.20
2018,09,18,00,28,7.20
2018,09,18,00,29,7.20
2018,09,18,00,30,7.20
2018,09,18,00,31,7.20
2018,09,18,00,32,7.20
2018,09,18,00,33,7.20
2018,09,18,00,34,7.20
2018,09,18,00,35,7.20
2018,09,18,00,36,7.20
2018,09,18,00,37,7.20
2018,09,18,00,38,7.20
2018,09,18,00,39,7.20
2018,09,18,00,40,7.20
2018,09,18,00,41,7.20
2018,09,18,00,42,7.20
2018,09,18,00,43,7.20
2018,09,18,00,44,7.20
2018,09,18,00,45,7.20
2018,09,18,00,46,7.10
2018,09,18,00,47,7.10
2018,09,18,00,48,7.10
2018,09,18,00,49,7.10
2018,09,18,00,50,7.10
2018,09,18,00,51,7.10
2018,09,18,00,52,7.10
2018,09,18,00,53,7.10
2018,09,18,00,54,7.00
2018,09,18,00,55,7.00
2018,09,18,00,56,7.00
2018,09,18,00,57,7.00
2018,09,18,00,58,7.00
2018,09,18,00,59,6.90
2018,09,18,01,00,6.90
2018,09,18,01,01,6.90
2018,09,18,01,02,6.90
2018,09,18,01,03,6.90
2018,09,18,01,04,6.90
2018,09,18,01,05,6.80
2018,09,18,01,06,6.80
2018,09,18,01,07,6.80
2018,09,18,01,08,6.80
2018,09,18,01,09,6.80
2018,09,18,01,10,6.80
2018,09,18,01,11,6.80
2018,09,18,01,12,6.80
2018,09,18,01,13,6.80
2018,09,18,01,14,6.80
2018,09,18,01,15,6.80
2018,09,18,01,16,6.80
2018,09,18,01,17,6.80
2018,09,18,01,18,6.80
2018,09,18,01,19,6.80
2018,09,18,01,20,6.80
2018,09,18,01,21,6.80
2018,09,18,01,22,6.80
2018,09,18,01,23,6.80
2018,09,18,01,24,6.80
2018,09,18,01,25,6.80
2018,09,18,01,26,6.80
2018,09,18,01,27,6.80
2018,09,18,01,28,6.80
2018,09,18,01,29,6.80
2018,09,18,01,30,6.80
2018,09,18,01,31,6.80
2018,09,18,01,32,6.80
2018,09,18,01,33,6.70
2018,09,18,01,34,6.70
2018,09,18,01,35,6.60
2018,09,18,01,36,6.60
2018,09,18,01,37,6.60
2018,09,18,01,38,6.60
2018,09,18,01,39,6.60
2018,09,18,01,40,6.60
2018,09,18,01,41,6.60
2018,09,18,01,42,6.60
2018,09,18,01,43,6.60
2018,09,18,01,44,6.60
2018,09,18,01,45,6.60
2018,09,18,01,46,6.60
2018,09,18,01,47,6.70
2018,09,18,01,48,6.70
2018,09,18,01,49,6.70
2018,09,18,01,50,6.70
2018,09,18,01,51,6.70
2018,09,18,01,52,6.70
2018,09,18,01,53,6.70
2018,09,18,01,54,6.60
2018,09,18,01,55,6.60
2018,09,18,01,56,6.60
2018,09,18,01,57,6.60
2018,09,18,01,58,6.60
2018,09,18,01,59,6.60
2018,09,18,02,00,6.50
2018,09,18,02,01,6.50
2018,09,18,02,02,6.50
2018,09,18,02,03,6.50
2018,09,18,02,04,6.50
2018,09,18,02,05,6.50
2018,09,18,02,06,6.50
2018,09,18,02,07,6.50
2018,09,18,02,08,6.40
2018,09,18,02,09,6.50
2018,09,18,02,10,6.50
2018,09,18,02,11,6.40
2018,09,18,02,12,6.50
2018,09,18,02,13,6.50
2018,09,18,02,14,6.50
2018,09,18,02,15,6.50
2018,09,18,02,16,6.60
2018,09,18,02,17,6.60
2018,09,18,02,18,6.60
2018,09,18,02,19,6.60
2018,09,18,02,20,6.60
2018,09,18,02,21,6.60
2018,09,18,02,22,6.60
2018,09,18,02,23,6.60
2018,09,18,02,24,6.60
2018,09,18,02,25,6.60
2018,09,18,02,26,6.60
2018,09,18,02,27,6.60
2018,09,18,02,28,6.60
2018,09,18,02,29,6.50
2018,09,18,02,30,6.50
2018,09,18,02,31,6.50
2018,09,18,02,32,6.50
2018,09,18,02,33,6.50
2018,09,18,02,34,6.50
2018,09,18,02,35,6.50
2018,09,18,02,36,6.40
2018,09,18,02,37,6.40
2018,09,18,02,38,6.40
2018,09,18,02,39,6.40
2018,09,18,02,40,6.40
2018,09,18,02,41,6.50
2018,09,18,02,42,6.50
2018,09,18,02,43,6.50
2018,09,18,02,44,6.50
2018,09,18,02,45,6.50
2018,09,18,02,46,6.50
2018,09,18,02,47,6.50
2018,09,18,02,48,6.50
2018,09,18,02,49,6.50
2018,09,18,02,50,6.50
2018,09,18,02,51,6.50
2018,09,18,02,52,6.50
2018,09,18,02,53,6.40
2018,09,18,02,54,6.40
2018,09,18,02,55,6.40
2018,09,18,02,56,6.40
2018,09,18,02,57,6.40
2018,09,18,02,58,6.40
2018,09,18,02,59,6.40
2018,09,18,03,00,6.40
2018,09,18,03,01,6.30
2018,09,18,03,02,6.30
2018,09,18,03,03,6.30
2018,09,18,03,04,6.30
2018,09,18,03,05,6.30
2018,09,18,03,06,6.30
2018,09,18,03,07,6.30
2018,09,18,03,08,6.30
2018,09,18,03,09,6.30
2018,09,18,03,10,6.30
2018,09,18,03,11,6.30
2018,09,18,03,12,6.30
2018,09,18,03,13,6.30
2018,09,18,03,14,6.30
2018,09,18,03,15,6.30
2018,09,18,03,16,6.30
2018,09,18,03,17,6.30
2018,09,18,03,18,6.20
2018,09,18,03,19,6.20
2018,09,18,03,20,6.20
2018,09,18,03,21,6.20
2018,09,18,03,22,6.10
2018,09,18,03,23,6.10
2018,09,18,03,24,6.10
2018,09,18,03,25,6.10
2018,09,18,03,26,6.10
2018,09,18,03,27,6.10
2018,09,18,03,28,6.10
2018,09,18,03,29,6.10
2018,09,18,03,30,6.10
2018,09,18,03,31,6.10
2018,09,18,03,32,6.10
2018,09,18,03,33,6.10
2018,09,18,03,34,6.10
2018,09,18,03,35,6.10
2018,09,18,03,36,6.10
2018,09,18,03,37,6.10
2018,09,18,03,38,6.10
2018,09,18,03,39,6.10
2018,09,18,03,40,6.00
2018,09,18,03,41,6.00
2018,09,18,03,42,6.00
2018,09,18,03,43,6.00
2018,09,18,03,44,6.00
2018,09,18,03,45,5.90
2018,09,18,03,46,5.90
2018,09,18,03,47,5.90
2018,09,18,03,48,5.90
2018,09,18,03,49,5.90
2018,09,18,03,50,5.90
2018,09,18,03,51,5.90
2018,09,18,03,52,5.80
2018,09,18,03,53,5.80
2018,09,18,03,54,5.80
2018,09,18,03,55,5.80
2018,09,18,03,56,5.90
2018,09,18,03,57,5.90
2018,09,18,03,58,5.90
2018,09,18,03,59,5.90
2018,09,18,04,00,5.90
2018,09,18,04,01,5.90
2018,09,18,04,02,5.90
2018,09,18,04,03,5.90
2018,09,18,04,04,5.80
2018,09,18,04,05,5.80
2018,09,18,04,06,5.80
2018,09,18,04,07,5.80
2018,09,18,04,08,5.80
2018,09,18,04,09,5.80
2018,09,18,04,10,5.80
2018,09,18,04,11,5.80
2018,09,18,04,12,5.80
2018,09,18,04,13,5.80
2018,09,18,04,14,5.80
2018,09,18,04,15,5.80
2018,09,18,04,16,5.80
2018,09,18,04,17,5.70
2018,09,18,04,18,5.70
2018,09,18,04,19,5.70
2018,09,18,04,20,5.70
2018,09,18,04,21,5.70
2018,09,18,04,22,5.70
2018,09,18,04,23,5.70
2018,09,18,04,24,5.70
2018,09,18,04,25,5.70
2018,09,18,04,26,5.70
2018,09,18,04,27,5.80
2018,09,18,04,28,5.80
2018,09,18,04,29,5.80
2018,09,18,04,30,5.80
2018,09,18,04,31,5.80
2018,09,18,04,32,5.80
2018,09,18,04,33,5.80
2018,09,18,04,34,5.80
2018,09,18,04,35,5.90
2018,09,18,04,36,5.90
2018,09,18,04,37,5.90
2018,09,18,04,38,5.90
2018,09,18,04,39,5.90
2018,09,18,04,40,6.00
2018,09,18,04,41,6.00
2018,09,18,04,42,6.10
2018,09,18,04,43,6.10
2018,09,18,04,44,6.10
2018,09,18,04,45,6.10
2018,09,18,04,46,6.10
2018,09,18,04,47,6.10
2018,09,18,04,48,6.10
2018,09,18,04,49,6.10
2018,09,18,04,50,6.10
2018,09,18,04,51,6.10
2018,09,18,04,52,6.10
2018,09,18,04,53,6.10
2018,09,18,04,54,6.10
2018,09,18,04,55,6.10
2018,09,18,04,56,6.10
2018,09,18,04,57,6.10
2018,09,18,04,58,6.10
2018,09,18,04,59,6.10
2018,09,18,05,00,6.10
2018,09,18,05,01,6.10
2018,09,18,05,02,6.10
2018,09,18,05,03,6.10
2018,09,18,05,04,6.10
2018,09,18,05,05,6.10
2018,09,18,05,06,6.00
2018,09,18,05,07,6.00
2018,09,18,05,08,6.00
2018,09,18,05,09,6.00
2018,09,18,05,10,6.00
2018,09,18,05,11,6.00
2018,09,18,05,12,6.00
2018,09,18,05,13,6.00
2018,09,18,05,14,6.00
2018,09,18,05,15,6.00
2018,09,18,05,16,6.00
2018,09,18,05,17,6.00
2018,09,18,05,18,6.00
2018,09,18,05,19,6.00
2018,09,18,05,20,6.00
2018,09,18,05,21,6.00
2018,09,18,05,22,6.00
2018,09,18,05,23,6.00
2018,09,18,05,24,6.00
2018,09,18,05,25,6.00
2018,09,18,05,26,6.00
2018,09,18,05,27,6.00
2018,09,18,05,28,6.00
2018,09,18,05,29,6.00
2018,09,18,05,30,6.00
2018,09,18,05,31,6.00
2018,09,18,05,32,6.00
2018,09,18,05,33,6.00
2018,09,18,05,34,6.00
2018,09,18,05,35,6.00
2018,09,18,05,36,6.00
2018,09,18,05,37,6.00
2018,09,18,05,38,6.00
2018,09,18,05,39,6.00
2018,09,18,05,40,5.90
2018,09,18,05,41,5.90
2018,09,18,05,42,5.90
2018,09,18,05,43,5.90
2018,09,18,05,44,5.90
2018,09,18,05,45,5.90
2018,09,18,05,46,5.90
2018,09,18,05,47,5.90
2018,09,18,05,48,5.80
2018,09,18,05,49,5.80
2018,09,18,05,50,5.80
2018,09,18,05,51,5.80
2018,09,18,05,52,5.80
2018,09,18,05,53,5.80
2018,09,18,05,54,5.80
2018,09,18,05,55,5.70
2018,09,18,05,56,5.70
2018,09,18,05,57,5.70
2018,09,18,05,58,5.70
2018,09,18,05,59,5.70
2018,09,18,06,00,5.70
2018,09,18,06,01,5.70
2018,09,18,06,02,5.60
2018,09,18,06,03,5.60
2018,09,18,06,04,5.60
2018,09,18,06,05,5.60
2018,09,18,06,06,5.60
2018,09,18,06,07,5.60
2018,09,18,06,08,5.60
2018,09,18,06,09,5.60
2018,09,18,06,10,5.60
2018,09,18,06,11,5.60
2018,09,18,06,12,5.60
2018,09,18,06,13,5.60
2018,09,18,06,14,5.60
2018,09,18,06,15,5.60
2018,09,18,06,16,5.60
2018,09,18,06,17,5.60
2018,09,18,06,18,5.50
2018,09,18,06,19,5.50
2018,09,18,06,20,5.50
2018,09,18,06,21,5.50
2018,09,18,06,22,5.50
2018,09,18,06,23,5.50
2018,09,18,06,24,5.50
2018,09,18,06,25,5.50
2018,09,18,06,26,5.50
2018,09,18,06,27,5.50
2018,09,18,06,28,5.50
2018,09,18,06,29,5.60
2018,09,18,06,30,5.60
2018,09,18,06,31,5.60
2018,09,18,06,32,5.60
2018,09,18,06,33,5.60
2018,09,18,06,34,5.60
2018,09,18,06,35,5.60
2018,09,18,06,36,5.60
2018,09,18,06,37,5.60
2018,09,18,06,38,5.60
2018,09,18,06,39,5.50
2018,09,18,06,40,5.50
2018,09,18,06,41,5.50
2018,09,18,06,42,5.50
2018,09,18,06,43,5.50
2018,09,18,06,44,5.50
2018,09,18,06,45,5.50
2018,09,18,06,46,5.50
2018,09,18,06,47,5.40
2018,09,18,06,48,5.50
2018,09,18,06,49,5.50
2018,09,18,06,50,5.50
2018,09,18,06,51,5.40
2018,09,18,06,52,5.40
2018,09,18,06,53,5.40
2018,09,18,06,54,5.40
2018,09,18,06,55,5.40
2018,09,18,06,56,5.40
2018,09,18,06,57,5.40
2018,09,18,06,58,5.40
2018,09,18,06,59,5.40
2018,09,18,07,00,5.40
2018,09,18,07,01,5.40
2018,09,18,07,02,5.40
2018,09,18,07,03,5.40
2018,09,18,07,04,5.40
2018,09,18,07,05,5.40
2018,09,18,07,06,5.40
2018,09,18,07,07,5.40
2018,09,18,07,08,5.40
2018,09,18,07,09,5.40
2018,09,18,07,10,5.40
2018,09,18,07,11,5.40
2018,09,18,07,12,5.40
2018,09,18,07,13,5.30
2018,09,18,07,14,5.30
2018,09,18,07,15,5.30
2018,09,18,07,16,5.30
2018,09,18,07,17,5.30
2018,09,18,07,18,5.30
2018,09,18,07,19,5.30
2018,09,18,07,20,5.30
2018,09,18,07,21,5.30
2018,09,18,07,22,5.30
2018,09,18,07,23,5.30
2018,09,18,07,24,5.30
2018,09,18,07,25,5.30
2018,09,18,07,26,5.30
2018,09,18,07,27,5.20
2018,09,18,07,28,5.30
2018,09,18,07,29,5.20
2018,09,18,07,30,5.20
2018,09,18,07,31,5.20
2018,09,18,07,32,5.20
2018,09,18,07,33,5.20
2018,09,18,07,34,5.20
2018,09,18,07,35,5.20
2018,09,18,07,36,5.20
2018,09,18,07,37,5.20
2018,09,18,07,38,5.20
2018,09,18,07,39,5.20
2018,09,18,07,40,5.20
2018,09,18,07,41,5.20
2018,09,18,07,42,5.20
2018,09,18,07,43,5.30
2018,09,18,07,44,5.30
2018,09,18,07,45,5.30
2018,09,18,07,46,5.30
2018,09,18,07,47,5.30
2018,09,18,07,48,5.30
2018,09,18,07,49,5.30
2018,09,18,07,50,5.30
2018,09,18,07,51,5.30
2018,09,18,07,52,5.30
2018,09,18,07,53,5.30
2018,09,18,07,54,5.30
2018,09,18,07,55,5.30
2018,09,18,07,56,5.30
2018,09,18,07,57,5.30
2018,09,18,07,58,5.30
2018,09,18,07,59,5.40
2018,09,18,08,00,5.40
2018,09,18,08,01,5.40
2018,09,18,08,02,5.50
2018,09,18,08,03,5.50
2018,09,18,08,04,5.60
2018,09,18,08,05,5.70
2018,09,18,08,06,5.70
2018,09,18,08,07,5.70
2018,09,18,08,08,5.70
2018,09,18,08,09,5.70
2018,09,18,08,10,5.70
2018,09,18,08,11,5.70
2018,09,18,08,12,5.60
2018,09,18,08,13,5.60
2018,09,18,08,14,5.60
2018,09,18,08,15,5.60
2018,09,18,08,16,5.60
2018,09,18,08,17,5.60
2018,09,18,08,18,5.60
2018,09,18,08,19,5.60
2018,09,18,08,20,5.60
2018,09,18,08,21,5.60
2018,09,18,08,22,5.60
2018,09,18,08,23,5.60
2018,09,18,08,24,5.70
2018,09,18,08,25,5.70
2018,09,18,08,26,5.70
2018,09,18,08,27,5.80
2018,09,18,08,28,5.80
2018,09,18,08,29,5.90
2018,09,18,08,30,5.90
2018,09,18,08,31,6.00
2018,09,18,08,32,6.00
2018,09,18,08,33,6.10
2018,09,18,08,34,6.10
2018,09,18,08,35,6.10
2018,09,18,08,36,6.20
2018,09,18,08,37,6.20
2018,09,18,08,38,6.20
2018,09,18,08,39,6.20
2018,09,18,08,40,6.20
2018,09,18,08,41,6.20
2018,09,18,08,42,6.20
2018,09,18,08,43,6.30
2018,09,18,08,44,6.30
2018,09,18,08,45,6.20
2018,09,18,08,46,6.20
2018,09,18,08,47,6.20
2018,09,18,08,48,6.20
2018,09,18,08,49,6.20
2018,09,18,08,50,6.30
2018,09,18,08,51,6.30
2018,09,18,08,52,6.30
2018,09,18,08,53,6.30
2018,09,18,08,54,6.30
2018,09,18,08,55,6.30
2018,09,18,08,56,6.30
2018,09,18,08,57,6.30
2018,09,18,08,58,6.20
2018,09,18,08,59,6.20
2018,09,18,09,00,6.20
2018,09,18,09,01,6.20
2018,09,18,09,02,6.30
2018,09,18,09,03,6.30
2018,09,18,09,04,6.40
2018,09,18,09,05,6.40
2018,09,18,09,06,6.50
2018,09,18,09,07,6.50
2018,09,18,09,08,6.60
2018,09,18,09,09,6.70
2018,09,18,09,10,6.70
2018,09,18,09,11,6.70
2018,09,18,09,12,6.70
2018,09,18,09,13,6.70
2018,09,18,09,14,6.70
2018,09,18,09,15,6.80
2018,09,18,09,16,6.80
2018,09,18,09,17,6.80
2018,09,18,09,18,6.90
2018,09,18,09,19,6.90
2018,09,18,09,20,6.90
2018,09,18,09,21,7.00
2018,09,18,09,22,7.10
2018,09,18,09,23,7.10
2018,09,18,09,24,7.20
2018,09,18,09,25,7.20
2018,09,18,09,26,7.20
2018,09,18,09,27,7.30
2018,09,18,09,28,7.30
2018,09,18,09,29,7.30
2018,09,18,09,30,7.40
2018,09,18,09,31,7.40
2018,09,18,09,32,7.50
2018,09,18,09,33,7.60
2018,09,18,09,34,7.60
2018,09,18,09,35,7.70
2018,09,18,09,36,7.80
2018,09,18,09,37,7.90
2018,09,18,09,38,8.00
2018,09,18,09,39,8.10
2018,09,18,09,40,8.20
2018,09,18,09,41,8.30
2018,09,18,09,42,8.40
2018,09,18,09,43,8.40
2018,09,18,09,44,8.40
2018,09,18,09,45,8.40
2018,09,18,09,46,8.40
2018,09,18,09,47,8.40
2018,09,18,09,48,8.40
2018,09,18,09,49,8.50
2018,09,18,09,50,8.50
2018,09,18,09,51,8.60
2018,09,18,09,52,8.60
2018,09,18,09,53,8.60
2018,09,18,09,54,8.60
2018,09,18,09,55,8.60
2018,09,18,09,56,8.70
2018,09,18,09,57,8.70
2018,09,18,09,58,8.70
2018,09,18,09,59,8.80
2018,09,18,10,00,8.90
2018,09,18,10,01,9.00
2018,09,18,10,02,9.10
2018,09,18,10,03,9.10
2018,09,18,10,04,9.20
2018,09,18,10,05,9.20
2018,09,18,10,06,9.30
2018,09,18,10,07,9.40
2018,09,18,10,08,9.40
2018,09,18,10,09,9.40
2018,09,18,10,10,9.50
2018,09,18,10,11,9.60
2018,09,18,10,12,9.60
2018,09,18,10,13,9.70
2018,09,18,10,14,9.70
2018,09,18,10,15,9.70
2018,09,18,10,16,9.80
2018,09,18,10,17,9.80
2018,09,18,10,18,9.80
2018,09,18,10,19,9.90
2018,09,18,10,20,9.90
2018,09,18,10,21,10.00
2018,09,18,10,22,10.00
2018,09,18,10,23,10.10
2018,09,18,10,24,10.10
2018,09,18,10,25,10.20
2018,09,18,10,26,10.20
2018,09,18,10,27,10.30
2018,09,18,10,28,10.30
2018,09,18,10,29,10.40
2018,09,18,10,30,10.40
2018,09,18,10,31,10.40
2018,09,18,10,32,10.50
2018,09,18,10,33,10.50
2018,09,18,10,34,10.60
2018,09,18,10,35,10.60
2018,09,18,10,36,10.70
2018,09,18,10,37,10.80
2018,09,18,10,38,10.80
2018,09,18,10,39,10.90
2018,09,18,10,40,11.00
2018,09,18,10,41,11.10
2018,09,18,10,42,11.10
2018,09,18,10,43,11.20
2018,09,18,10,44,11.20
2018,09,18,10,45,11.30
2018,09,18,10,46,11.30
2018,09,18,10,47,11.40
2018,09,18,10,48,11.50
2018,09,18,10,49,11.60
2018,09,18,10,50,11.60
2018,09,18,10,51,11.70
2018,09,18,10,52,11.80
2018,09,18,10,53,11.80
2018,09,18,10,54,11.90
2018,09,18,10,55,11.90
2018,09,18,10,56,12.00
2018,09,18,10,57,12.10
2018,09,18,10,58,12.10
2018,09,18,10,59,12.20
2018,09,18,11,00,12.30
2018,09,18,11,01,12.30
2018,09,18,11,02,12.40
2018,09,18,11,03,12.50
2018,09,18,11,04,12.60
2018,09,18,11,05,12.60
2018,09,18,11,06,12.60
2018,09,18,11,07,12.70
2018,09,18,11,08,12.70
2018,09,18,11,09,12.70
2018,09,18,11,10,12.80
2018,09,18,11,11,12.80
2018,09,18,11,12,12.90
2018,09,18,11,13,13.00
2018,09,18,11,14,13.10
2018,09,18,11,15,13.10
2018,09,18,11,16,13.20
2018,09,18,11,17,13.30
2018,09,18,11,18,13.30
2018,09,18,11,19,13.40
2018,09,18,11,20,13.50
2018,09,18,11,21,13.50
2018,09,18,11,22,13.60
2018,09,18,11,23,13.60
2018,09,18,11,24,13.50
2018,09,18,11,25,13.50
2018,09,18,11,26,13.50
2018,09,18,11,27,13.50
2018,09,18,11,28,13.40
2018,09,18,11,29,13.40
2018,09,18,11,30,13.40
2018,09,18,11,31,13.50
2018,09,18,11,32,13.50
2018,09,18,11,33,13.60
2018,09,18,11,34,13.60
2018,09,18,11,35,13.70
2018,09,18,11,36,13.80
2018,09,18,11,37,14.00
2018,09,18,11,38,14.10
2018,09,18,11,39,14.20
2018,09,18,11,40,14.30
2018,09,18,11,41,14.30
2018,09,18,11,42,14.30
2018,09,18,11,43,14.30
2018,09,18,11,44,14.30
2018,09,18,11,45,14.30
2018,09,18,11,46,14.30
2018,09,18,11,47,14.30
2018,09,18,11,48,14.30
2018,09,18,11,49,14.30
2018,09,18,11,50,14.40
2018,09,18,11,51,14.40
2018,09,18,11,52,14.50
2018,09,18,11,53,14.50
2018,09,18,11,54,14.50
2018,09,18,11,55,14.50
2018,09,18,11,56,14.40
2018,09,18,11,57,14.50
2018,09,18,11,58,14.50
2018,09,18,11,59,14.50
2018,09,18,12,00,14.70
2018,09,18,12,01,14.70
2018,09,18,12,02,14.90
2018,09,18,12,03,15.10
2018,09,18,12,04,15.30
2018,09,18,12,05,15.40
2018,09,18,12,06,15.60
2018,09,18,12,07,15.70
2018,09,18,12,08,15.80
2018,09,18,12,09,15.90
2018,09,18,12,10,16.00
2018,09,18,12,11,16.00
2018,09,18,12,12,16.10
2018,09,18,12,13,16.10
2018,09,18,12,14,16.10
2018,09,18,12,15,16.00
2018,09,18,12,16,16.00
2018,09,18,12,17,15.90
2018,09,18,12,18,15.90
2018,09,18,12,19,15.80
2018,09,18,12,20,15.70
2018,09,18,12,21,15.60
2018,09,18,12,22,15.60
2018,09,18,12,23,15.50
2018,09,18,12,24,15.60
2018,09,18,12,25,15.60
2018,09,18,12,26,15.60
2018,09,18,12,27,15.50
2018,09,18,12,28,15.60
2018,09,18,12,29,15.60
2018,09,18,12,30,15.70
2018,09,18,12,31,15.80
2018,09,18,12,32,15.90
2018,09,18,12,33,16.00
2018,09,18,12,34,16.10
2018,09,18,12,35,16.10
2018,09,18,12,36,16.00
2018,09,18,12,37,16.00
2018,09,18,12,38,16.00
2018,09,18,12,39,16.00
2018,09,18,12,40,16.00
2018,09,18,12,41,16.00
2018,09,18,12,42,16.00
2018,09,18,12,43,16.00
2018,09,18,12,44,16.10
2018,09,18,12,45,16.20
2018,09,18,12,46,16.20
2018,09,18,12,47,16.30
2018,09,18,12,48,16.30
2018,09,18,12,49,16.30
2018,09,18,12,50,16.30
2018,09,18,12,51,16.30
2018,09,18,12,52,16.30
2018,09,18,12,53,16.40
2018,09,18,12,54,16.50
2018,09,18,12,55,16.50
2018,09,18,12,56,16.50
2018,09,18,12,57,16.50
2018,09,18,12,58,16.50
2018,09,18,12,59,16.40
2018,09,18,13,00,16.40
2018,09,18,13,01,16.50
2018,09,18,13,02,16.50
2018,09,18,13,03,16.60
2018,09,18,13,04,16.60
2018,09,18,13,05,16.60
2018,09,18,13,06,16.70
2018,09,18,13,07,16.70
2018,09,18,13,08,16.70
2018,09,18,13,09,16.70
2018,09,18,13,10,16.70
2018,09,18,13,11,16.70
2018,09,18,13,12,16.70
2018,09,18,13,13,16.70
2018,09,18,13,14,16.70
2018,09,18,13,15,16.70
2018,09,18,13,16,16.70
2018,09,18,13,17,16.70
2018,09,18,13,18,16.70
2018,09,18,13,19,16.70
2018,09,18,13,20,16.70
2018,09,18,13,21,16.70
2018,09,18,13,22,16.70
2018,09,18,13,23,16.70
2018,09,18,13,24,16.80
2018,09,18,13,25,16.80
2018,09,18,13,26,16.80
2018,09,18,13,27,16.80
2018,09,18,13,28,16.80
2018,09,18,13,29,16.80
2018,09,18,13,30,16.80
2018,09,18,13,31,16.80
2018,09,18,13,32,16.70
2018,09,18,13,33,16.70
2018,09,18,13,34,16.80
2018,09,18,13,35,16.80
2018,09,18,13,36,16.80
2018,09,18,13,37,16.90
2018,09,18,13,38,16.90
2018,09,18,13,39,16.90
2018,09,18,13,40,16.90
2018,09,18,13,41,16.90
2018,09,18,13,42,17.00
2018,09,18,13,43,17.00
2018,09,18,13,44,17.00
2018,09,18,13,45,17.00
2018,09,18,13,46,17.10
2018,09,18,13,47,17.10
2018,09,18,13,48,17.10
2018,09,18,13,49,17.10
2018,09,18,13,50,17.00
2018,09,18,13,51,17.00
2018,09,18,13,52,17.00
2018,09,18,13,53,17.00
2018,09,18,13,54,17.10
2018,09,18,13,55,17.10
2018,09,18,13,56,17.10
2018,09,18,13,57,17.10
2018,09,18,13,58,17.10
2018,09,18,13,59,17.10
2018,09,18,14,00,17.10
2018,09,18,14,01,17.20
2018,09,18,14,02,17.20
2018,09,18,14,03,17.20
2018,09,18,14,04,17.20
2018,09,18,14,05,17.20
2018,09,18,14,06,17.20
2018,09,18,14,07,17.20
2018,09,18,14,08,17.30
2018,09,18,14,09,17.30
2018,09,18,14,10,17.40
2018,09,18,14,11,17.40
2018,09,18,14,12,17.40
2018,09,18,14,13,17.40
2018,09,18,14,14,17.40
2018,09,18,14,15,17.40
2018,09,18,14,16,17.30
2018,09,18,14,17,17.20
2018,09,18,14,18,17.20
2018,09,18,14,19,17.20
2018,09,18,14,20,17.20
2018,09,18,14,21,17.20
2018,09,18,14,22,17.20
2018,09,18,14,23,17.30
2018,09,18,14,24,17.30
2018,09,18,14,25,17.30
2018,09,18,14,26,17.40
2018,09,18,14,27,17.40
2018,09,18,14,28,17.30
2018,09,18,14,29,17.40
2018,09,18,14,30,17.40
2018,09,18,14,31,17.30
2018,09,18,14,32,17.30
2018,09,18,14,33,17.30
2018,09,18,14,34,17.30
2018,09,18,14,35,17.30
2018,09,18,14,36,17.30
2018,09,18,14,37,17.30
2018,09,18,14,38,17.30
2018,09,18,14,39,17.30
2018,09,18,14,40,17.20
2018,09,18,14,41,17.20
2018,09,18,14,42,17.20
2018,09,18,14,43,17.20
2018,09,18,14,44,17.10
2018,09,18,14,45,17.10
2018,09,18,14,46,17.10
2018,09,18,14,47,17.00
2018,09,18,14,48,17.10
2018,09,18,14,49,17.00
2018,09,18,14,50,17.00
2018,09,18,14,51,17.00
2018,09,18,14,52,17.00
2018,09,18,14,53,17.00
2018,09,18,14,54,17.00
2018,09,18,14,55,17.00
2018,09,18,14,56,17.00
2018,09,18,14,57,17.00
2018,09,18,14,58,17.00
2018,09,18,14,59,16.90
2018,09,18,15,00,16.90
2018,09,18,15,01,16.80
2018,09,18,15,02,16.70
2018,09,18,15,03,16.70
2018,09,18,15,04,16.70
2018,09,18,15,05,16.70
2018,09,18,15,06,16.70
2018,09,18,15,07,16.70
2018,09,18,15,08,16.80
2018,09,18,15,09,16.80
2018,09,18,15,10,16.80
2018,09,18,15,11,16.80
2018,09,18,15,12,16.80
2018,09,18,15,13,16.80
2018,09,18,15,14,16.80
2018,09,18,15,15,16.80
2018,09,18,15,16,16.90
2018,09,18,15,17,16.80
2018,09,18,15,18,16.80
2018,09,18,15,19,16.80
2018,09,18,15,20,16.80
2018,09,18,15,21,17.00
2018,09,18,15,22,17.10
2018,09,18,15,23,17.10
2018,09,18,15,24,17.10
2018,09,18,15,25,17.10
2018,09,18,15,26,17.10
2018,09,18,15,27,17.10
2018,09,18,15,28,17.10
2018,09,18,15,29,17.10
2018,09,18,15,30,17.10
2018,09,18,15,31,17.10
2018,09,18,15,32,17.10
2018,09,18,15,33,17.10
2018,09,18,15,34,17.20
2018,09,18,15,35,17.20
2018,09,18,15,36,17.30
2018,09,18,15,37,17.40
2018,09,18,15,38,17.40
2018,09,18,15,39,17.40
2018,09,18,15,40,17.40
2018,09,18,15,41,17.30
2018,09,18,15,42,17.30
2018,09,18,15,43,17.30
2018,09,18,15,44,17.30
2018,09,18,15,45,17.30
2018,09,18,15,46,17.30
2018,09,18,15,47,17.30
2018,09,18,15,48,17.40
2018,09,18,15,49,17.40
2018,09,18,15,50,17.40
2018,09,18,15,51,17.40
2018,09,18,15,52,17.40
2018,09,18,15,53,17.30
2018,09,18,15,54,17.30
2018,09,18,15,55,17.30
2018,09,18,15,56,17.20
2018,09,18,15,57,17.30
2018,09,18,15,58,17.20
2018,09,18,15,59,17.20
2018,09,18,16,00,17.20
2018,09,18,16,01,17.20
2018,09,18,16,02,17.30
2018,09,18,16,03,17.30
2018,09,18,16,04,17.30
2018,09,18,16,05,17.20
2018,09,18,16,06,17.20
2018,09,18,16,07,17.20
2018,09,18,16,08,17.10
2018,09,18,16,09,17.10
2018,09,18,16,10,17.10
2018,09,18,16,11,17.20
2018,09,18,16,12,17.20
2018,09,18,16,13,17.20
2018,09,18,16,14,17.20
2018,09,18,16,15,17.10
2018,09,18,16,16,17.00
2018,09,18,16,17,17.00
2018,09,18,16,18,16.90
2018,09,18,16,19,16.90
2018,09,18,16,20,16.90
2018,09,18,16,21,16.80
2018,09,18,16,22,16.80
2018,09,18,16,23,16.80
2018,09,18,16,24,16.80
2018,09,18,16,25,16.80
2018,09,18,16,26,16.80
2018,09,18,16,27,16.80
2018,09,18,16,28,16.80
2018,09,18,16,29,16.80
2018,09,18,16,30,16.80
2018,09,18,16,31,16.90
2018,09,18,16,32,16.90
2018,09,18,16,33,16.90
2018,09,18,16,34,17.00
2018,09,18,16,35,17.00
2018,09,18,16,36,17.00
2018,09,18,16,37,17.00
2018,09,18,16,38,16.90
2018,09,18,16,39,16.80
2018,09,18,16,40,16.70
2018,09,18,16,41,16.70
2018,09,18,16,42,16.70
2018,09,18,16,43,16.60
2018,09,18,16,44,16.70
2018,09,18,16,45,16.70
2018,09,18,16,46,16.60
2018,09,18,16,47,16.60
2018,09,18,16,48,16.60
2018,09,18,16,49,16.60
2018,09,18,16,50,16.60
2018,09,18,16,51,16.60
2018,09,18,16,52,16.50
2018,09,18,16,53,16.40
2018,09,18,16,54,16.40
2018,09,18,16,55,16.30
2018,09,18,16,56,16.30
2018,09,18,16,57,16.20
2018,09,18,16,58,16.30
2018,09,18,16,59,16.30
2018,09,18,17,00,16.30
2018,09,18,17,01,16.30
2018,09,18,17,02,16.30
2018,09,18,17,03,16.30
2018,09,18,17,04,16.30
2018,09,18,17,05,16.30
2018,09,18,17,06,16.30
2018,09,18,17,07,16.30
2018,09,18,17,08,16.30
2018,09,18,17,09,16.30
2018,09,18,17,10,16.30
2018,09,18,17,11,16.20
2018,09,18,17,12,16.20
2018,09,18,17,13,16.20
2018,09,18,17,14,16.20
2018,09,18,17,15,16.20
2018,09,18,17,16,16.10
2018,09,18,17,17,16.20
2018,09,18,17,18,16.20
2018,09,18,17,19,16.20
2018,09,18,17,20,16.20
2018,09,18,17,21,16.20
2018,09,18,17,22,16.20
2018,09,18,17,23,16.20
2018,09,18,17,24,16.10
2018,09,18,17,25,16.10
2018,09,18,17,26,16.00
2018,09,18,17,27,16.00
2018,09,18,17,28,16.00
2018,09,18,17,29,15.90
2018,09,18,17,30,15.90
2018,09,18,17,31,15.90
2018,09,18,17,32,15.90
2018,09,18,17,33,15.90
2018,09,18,17,34,15.90
2018,09,18,17,35,15.90
2018,09,18,17,36,15.90
2018,09,18,17,37,15.90
2018,09,18,17,38,15.90
2018,09,18,17,39,16.00
2018,09,18,17,40,16.10
2018,09,18,17,41,16.10
2018,09,18,17,42,16.10
2018,09,18,17,43,16.10
2018,09,18,17,44,16.00
2018,09,18,17,45,16.00
2018,09,18,17,46,16.00